Terug naar catalogus

STARLINK-4275

ActiefCommunicatieVLEO
NORAD 53008·PAYLOAD·🇺🇸 United States

Gelanceerd Jul 7, 2022 vanaf Cape Canaveral Space Force Station

Loading…

Volgende Passages (komende 24 uur)

TLE

VersSource: CelesTrak SupGP

Epoch: Sep 15, 2026, 01:57 UTC

1 53008C 22076Y   26258.08173611  .00046421  00000+0  13276-2 0  2588
2 53008  53.1577 309.0514 0001101  95.2994 247.0708 15.35387230    15

Volg STARLINK-4275 in realtime met AllMySat

Download on the App Store